CZ-6A DEB, 57575

Orbit data source: Space-Track

CZ-6A DEB, 57575 is space debris in SSO originally from a launch on Fri, 11 Nov 2022 UTC launched from the Taiyaun Space Center, China (TSC). Debris objects in space refer to the collection of defunct objects orbiting the Earth. Examples of debris include non-operational satellites, rocket bodies, and fragments generated from explosions, collisions, or faulty payload assembly.

Loading next visibility...
Identifier
57575, 2022-151AHS
Orbit
SSO
Country
Flag of CNCN / PRC
Related business
Manufacturer
SAST
Mission
Spacecraft
Bus & Motor
Unknown
Mass
Unknown
Launch date (UTC)
2022-11-11 (3 years ago)
Launch vehicle
Unknown
Launch site
Taiyaun Space Center, China (TSC)
Object type
Payload
Rocket body
Debris
Shape & HBR
Unknown shape, 0.1 m
Radar Cross Section
Small (<0.1 m²)

Expand to show TLE details & history
Last TLE update: 13 hours ago

TLE from 13 hours ago
0 CZ-6A DEB
1 57575U 22151AHS 25351.98048019  .00003328  00000-0  15618-2 0  9994
2 57575  98.8088 353.8479 0045218  98.3676 262.2630 14.20240092145522
Epoch: 2025-12-17T23:31Z
TLE epoch observation values (Epoch: 2025-12-17T23:31:53.488Z)
Latitude
-0.00005°
Longitude
-85.96751°
Altitude
831.983 km
Speed
7.435 km/s
True Right ascension
23h 35m 23s
True Declination
0° 00' 00"
Sunlit
Object was in daylight at epoch
Visualization orbit readout
Latitude
Unknown
Longitude
Unknown
Altitude
Unknown
Speed
Unknown
Apparent Right ascension
Unknown
Apparent Declination
Unknown
Sunlit
N/A
Visualization observer readout
Local Sidereal Time
11:26:06
Azimuth
Unknown
Elevation
Unknown
Doppler factor
Unknown
Orbital elements
Apogee altitude
854.26 km
Perigee altitude
789.148 km
Semi-major axis
7,199.841 km
Eccentricity
0.00452
Inclination
98.8088°
RAAN
353.8479°
Arg. of periapsis
98.3676°
True anomaly
261.74995°
Mean anomaly
262.263°
Eccentric anomaly
262.00644°
Mean motion
3.5527 °/min
Orbital period
101.33 mins
BSTAR
0.0015618
Loading maneuver chart data...
Computing Atmospheric mass density...
Loading historical data...
Loading historical data...
Loading historical data...
Loading historical data...
Loading historical data...
Loading historical data...
Loading historical data...

Documentation

Showing up to 5 results
|